Location: Dackenheim
(49.5215°N, 8.1854°E)
Time: 20:41:53
(UTC+00:00)

Meteor 1-26 Rocket - Pass Details

Date: 19 May 2025
Orbit: 805 x 928 km, 81.3° (Epoch: 19 June)

Event Time Altitude Azimuth Distance (km) Brightness Sun altitude
Exits shadow 20:53:42 - 189° (S) 2,895 6.6 -13.0°
Reaches altitude 10° 20:54:36 10° 189° (S) 2,555 6.3 -13.0°
Maximum altitude 21:00:28 89° 106° (ESE) 918 4.4 -13.6°
Drops below altitude 10° 21:06:31 10° 12° (NNE) 2,634 7.4 -14.1°
Sets 21:09:01 0° 13° (NNE) 3,587 8.2 -14.4°
